SCP
1 1 1 0 0 0 0 0 0 0 0 0 0 0 0 0 0 0 0 0 1 1 1 1 1 1 1 1 1 1 2 2 2 2 2 2 2 2 2 2 1 1 1
1 1 1 1 1 1 1 1 1 1 1 1 0 0 0 0 1 1 1 1 1 1 1 1 1 1 1 1 1 1 1 2 2 2 2 2 2 2 2 2 2 2 2
1 1 1 1 1 1 1 1 1 1 1 1 1 1 1 1 1 1 1 1 1 1 1 1 1 1 1 1 1 1 1 1 1 2 2 2 2 3 3 3 2 2 2
1 1 1 1 1 1 1 1 1 1 1 1 1 1 1 1 1 1 1 1 1 1 1 1 1 1 0 0 0 0 1 1 1 1 1 2 2 2 3 3 3 3 3
1 1 1 1 1 1 1 1 1 1 1 1 0 0 0 0 0 0 0 1 0 0 0 0 0 0 0 0 0 0 0 0 1 1 1 1 2 2 2 3 3 3 3
1 1 1 1 1 1 1 0 0 0 0 0 0 0 0 0 0 0 0 0 0 0 0 0 0 0 0 0 0 0 0 0 0 0 0 1 1 1 2 2 2 2 3
0 0 0 0 0 0 0 0 0 0 0 0 0 0 0 0 0 0 0 0 0 0 0 0 0 0 0 0 0 0 0 0 0 0 0 0 1 1 1 1 1 2 2
0 0 0 0 0 0 0 0 0 0 0 0 0 0 0 0 0 0 0 0 0 0 0 0 0 0 0 0 0 0 0 0 0 0 0 0 0 0 0 0 1 1 1
0 0 0 0 0 0 0 0 0 0 0 0 0 0 0 0 0 0 0 0 0 0 0 0 0 0 0 0 0 0 0 0 0 0 0 0 0 0 0 0 0 0 0
0 0 0 0 0 0 0 0 0 0 0 0 0 0 0 0 0 0 0 0 0 0 0 0 0 0 0 0 0 0 0 0 0 0 0 0 0 0 0 0 0 0 0
0 0 0 0 0 0 0 0 0 0 0 0 0 0 0 0 0 0 0 0 0 0 0 0 0 0 0 0 0 0 0 0 0 0 0 0 0 0 0 0 0 0 0
0 0 0 0 0 0 0 0 0 0 0 0 0 0 0 0 0 0 0 0 0 0 0 0 0 0 0 0 0 0 0 0 0 0 0 0 0 0 0 0 0 0 0
0 0 0 0 0 0 0 0 0 0 0 0 0 0 0 0 0 0 0 0 0 0 0 0 0 0 0 0 0 0 0 0 0 0 0 0 0 0 0 0 0 0 0
0 0 0 0 0 0 0 0 0 0 0 0 0 0 0 0 0 0 0 0 0 0 0 0 0 0 0 0 0 0 0 0 0 0 0 0 0 0 0 0 0 0 0
0 0 0 0 0 0 0 0 0 0 0 0 0 0 0 0 0 0 0 0 0 0 0 0 0 0 0 0 0 0 0 0 0 0 0 0 0 0 0 0 0 0 0
0 0 0 0 0 0 0 0 0 0 0 0 0 0 0 0 0 0 0 0 0 0 0 0 0 0 0 0 0 0 0 0 0 0 0 0 0 0 0 0 0 0 0
0 0 0 0 0 0 0 0 0 0 0 0 0 0 0 0 0 0 0 0 0 0 0 0 0 0 0 0 0 0 0 0 0 0 0 0 0 0 0 0 0 0 0
0 0 0 0 0 0 0 0 0 0 0 0 0 0 0 0 0 0 0 0 0 0 0 0 0 0 0 0 0 0 0 0 0 0 0 0 0 0 0 0 0 0 0
0 0 0 0 0 0 0 0 0 0 0 0 0 0 0 0 0 0 0 0 0 0 0 0 0 0 0 0 0 0 0 0 0 0 0 0 0 0 0 0 0 0 0
0 0 0 0 0 0 0 0 0 0 0 0 0 0 0 0 0 0 0 0 0 0 0 0 0 0 0 0 0 0 0 0 0 0 0 0 0 0 0 0 0 0 0
0 0 0 0 0 0 0 0 0 0 0 0 0 0 0 0 0 0 0 0 0 0 0 0 0 0 0 0 0 0 0 0 0 0 0 0 0 0 0 0 0 0 0
0 0 0 0 0 0 0 0 0 0 0 0 0 0 0 0 0 0 0 0 0 0 0 0 0 0 0 0 0 0 0 0 0 0 0 0 0 0 0 0 0 0 0
0 0 0 0 0 0 0 0 0 0 0 0 0 0 0 0 0 0 0 0 0 0 0 0 0 0 0 0 0 -0 -0 -0 -0 -0 0 0 0 0 0 0 0 0 0
0 0 0 0 0 0 0 0 0 0 0 0 0 0 0 0 0 0 0 0 0 0 0 0 0 0 0 0 -0 -0 -0 -0 -0 -0 -0 -0 0 0 0 0 0 0 0
0 0 0 0 0 0 0 0 0 0 0 0 0 0 0 0 0 0 0 0 0 0 0 0 0 0 0 0 -0 -0 -0 -0 -0 -0 -0 0 0 0 0 0 0 0 0
0 0 0 0 0 0 0 0 0 0 0 0 0 0 0 0 0 0 0 0 0 0 0 0 0 0 -0 -0 -0 0 0 -0 0 0 0 0 0 0 0 0 0 0 0
Wind_Speed
1 1 1 2 2 1 1 1 2 3 3 3 3 3 3 4 4 3 4 8 8 8 8 7 6 5 5 5 5 5 6 7 7 8 9 9 9 10 10 10 11 11 12
3 2 2 1 2 3 4 3 4 4 3 3 4 5 5 5 4 3 1 5 7 8 9 9 8 7 6 6 6 6 7 7 8 8 8 9 10 11 11 12 12 12 13
3 1 1 2 3 2 2 2 4 3 3 3 3 4 3 3 4 4 3 1 4 8 9 9 8 7 6 7 8 9 9 10 10 10 10 10 10 10 11 12 13 14 14
3 1 2 4 3 3 2 2 2 3 4 4 4 4 4 4 5 5 4 4 3 3 6 9 9 9 9 9 10 12 13 13 13 13 13 12 12 11 10 11 12 13 14
3 2 4 4 3 2 3 4 5 4 4 5 5 4 3 4 5 7 5 5 4 3 3 7 11 11 11 12 13 14 15 15 15 16 16 16 14 12 11 11 11 12 13
5 4 3 4 4 3 4 4 3 3 3 3 6 6 4 5 5 6 7 5 3 4 3 3 3 6 11 12 14 15 16 17 17 17 17 17 16 15 14 13 13 12 12
5 4 4 3 3 3 3 3 3 4 3 3 3 4 5 6 6 5 3 2 2 2 2 2 2 2 4 9 11 14 17 18 18 18 17 17 17 16 16 15 15 14 14
4 4 4 2 3 2 0 0 1 2 4 3 3 4 4 4 3 5 3 2 2 2 3 6 4 4 4 3 6 15 16 16 17 17 18 18 17 17 18 18 18 18 17
5 5 4 4 3 2 2 2 2 2 3 4 3 3 3 3 5 4 6 5 4 3 3 3 5 5 6 5 4 9 15 14 16 16 17 17 17 17 18 19 19 19 19
4 4 4 3 2 3 2 3 5 3 3 4 4 3 3 3 3 4 4 5 6 5 4 6 6 6 6 4 5 10 13 12 16 18 19 18 17 18 18 18 19 19 19
3 4 4 3 1 1 3 3 2 3 3 3 4 5 5 4 4 5 6 5 5 4 5 5 4 4 5 5 6 11 15 15 15 17 18 17 17 18 19 19 19 18 19
4 4 5 3 0 2 2 1 1 3 2 2 3 3 4 5 5 5 7 7 6 5 6 5 5 5 6 7 11 15 11 9 10 12 15 17 18 19 20 19 19 19 19
4 5 4 2 1 1 1 2 2 3 2 3 2 3 3 4 4 5 7 8 8 7 8 7 7 6 7 5 6 10 9 8 9 11 13 16 18 19 19 19 19 19 19
6 5 3 2 0 1 3 2 3 4 3 2 5 4 3 4 4 4 5 7 10 9 8 8 7 8 7 6 7 10 7 10 11 12 14 16 19 19 20 20 19 19 18
3 4 2 1 1 1 2 3 3 4 4 4 5 5 5 4 4 4 4 5 8 12 11 8 7 8 8 7 9 7 7 13 14 14 15 16 18 19 20 20 20 19 19
3 1 1 1 2 3 3 4 4 5 5 5 5 6 5 5 4 4 5 5 6 9 12 8 8 9 10 12 16 11 10 19 19 18 17 17 18 20 21 22 21 20 20
1 1 2 2 3 4 4 5 5 6 6 6 6 6 6 6 5 4 4 5 6 7 11 10 8 9 10 11 11 10 10 10 11 18 19 19 19 20 20 21 21 20 19
1 3 3 4 5 5 5 5 6 6 6 6 6 6 7 6 6 5 5 6 6 7 9 13 10 9 11 11 11 11 12 12 9 14 16 15 16 17 17 18 18 17 16
2 3 4 5 5 5 5 5 6 7 7 7 8 8 8 7 7 6 6 7 7 8 7 10 11 9 10 11 11 12 12 9 10 11 12 12 13 14 15 15 16 16 15
3 4 4 5 5 7 10 10 10 9 9 9 9 9 9 8 7 7 7 8 8 8 8 9 9 9 9 10 10 9 8 6 7 8 9 10 10 13 15 15 16 15 14
5 5 6 6 7 7 9 10 9 10 9 10 9 9 9 12 15 11 10 8 8 8 8 9 9 9 9 9 8 8 9 7 8 7 6 6 5 5 7 11 15 15 13
5 6 6 7 7 6 6 9 9 9 10 10 10 9 10 12 14 15 18 18 16 12 10 10 9 10 11 11 9 8 8 8 8 4 4 5 4 5 5 5 9 11 12
6 5 5 6 5 3 2 5 9 9 10 9 9 9 10 11 13 11 13 17 16 18 19 14 13 13 13 11 10 10 9 10 9 6 4 6 5 6 5 5 9 9 9
5 5 4 5 4 1 2 5 10 10 10 9 9 10 10 11 12 11 12 12 12 12 13 11 10 11 10 9 9 10 11 10 9 6 5 5 3 4 4 3 7 9 9
4 5 5 5 4 1 2 5 8 10 8 9 10 10 11 11 13 14 13 13 13 11 11 11 10 10 11 13 11 7 7 6 4 3 3 3 2 2 3 3 5 8 9
4 5 5 5 5 5 4 5 8 9 9 10 10 10 12 11 14 15 11 10 10 8 7 6 6 6 6 7 8 5 4 3 2 1 0 1 2 1 3 1 1 2 4
Wind_Direction
141 109 63 48 327 62 128 313 326 28 20 323 302 310 330 340 339 21 127 156 160 168 176 185 195 207 225 239 249 252 252 250 246 240 234 228 226 225 223 219 215 213 213
81 59 76 58 351 24 38 356 350 3 344 333 331 334 334 328 333 340 144 166 186 191 195 197 201 210 227 244 258 266 270 268 263 259 251 241 234 229 227 224 220 219 218
87 47 102 101 37 14 28 354 356 336 318 327 322 325 322 319 311 313 312 246 201 209 213 213 210 215 232 252 267 274 276 275 273 270 267 262 254 244 235 231 226 223 221
79 30 55 66 19 357 17 20 2 353 1 352 343 335 331 322 303 284 268 263 256 229 215 220 217 221 236 252 265 272 275 276 277 275 272 269 265 261 255 246 238 232 227
77 56 75 61 1 9 32 16 39 12 353 346 320 298 307 308 306 297 293 279 274 266 230 215 223 232 243 254 262 267 271 275 277 277 276 274 272 271 269 264 256 247 239
69 43 89 69 22 25 44 38 13 355 323 299 295 304 305 284 277 269 268 266 259 264 272 278 245 249 259 266 268 268 269 271 273 275 276 277 278 280 279 275 270 262 255
76 60 60 78 55 49 44 21 17 333 311 308 306 296 280 269 261 256 265 278 280 286 287 294 284 285 276 277 279 274 271 271 271 271 274 278 281 283 283 281 280 274 265
93 98 74 50 59 36 290 34 2 312 309 329 316 301 299 295 325 350 341 311 318 341 330 311 316 304 291 277 273 277 276 271 271 272 274 276 280 282 282 280 278 277 272
99 77 77 57 37 339 53 7 339 330 326 322 296 300 312 317 341 321 338 340 337 321 308 310 293 280 274 262 255 267 269 269 266 267 270 274 278 280 280 279 277 275 273
110 105 90 76 43 347 28 357 45 349 330 306 316 330 318 315 300 304 307 302 302 303 291 285 282 282 275 271 264 259 258 247 251 259 264 268 273 277 278 278 277 274 272
124 117 107 83 47 15 57 19 1 341 322 333 342 340 331 320 288 276 292 299 305 295 287 279 283 288 292 284 274 264 257 241 238 248 255 260 267 273 276 277 277 276 274
152 132 119 100 47 49 49 344 333 295 321 350 331 318 314 313 318 319 311 307 300 304 314 316 305 286 277 270 271 279 269 240 226 236 247 254 263 269 272 275 277 278 278
135 111 102 101 50 57 275 271 290 291 290 289 285 282 293 306 311 307 302 302 304 306 307 303 299 297 297 297 300 302 287 256 230 231 242 252 260 265 269 272 275 278 279
92 118 119 136 212 293 307 348 313 291 276 261 267 270 272 275 280 281 285 293 293 291 288 292 302 305 307 308 303 307 295 278 251 239 241 247 254 260 263 266 270 273 276
111 112 117 161 246 288 299 299 278 283 278 263 263 264 256 259 263 265 269 272 283 289 286 288 291 297 301 301 298 304 299 293 280 264 251 247 250 253 256 260 264 267 270
64 69 263 258 266 266 263 261 271 270 269 264 260 261 264 261 264 266 267 269 271 278 285 288 288 289 297 300 301 301 297 294 287 278 263 251 245 245 250 255 258 261 264
81 266 273 284 279 268 260 255 261 270 271 273 278 281 282 281 278 277 277 277 278 281 287 291 290 291 292 294 292 287 285 276 272 268 263 255 248 246 248 251 254 256 259
316 310 309 296 288 286 283 280 284 294 303 308 311 310 304 300 297 291 286 285 283 281 282 287 288 289 288 289 285 281 282 279 271 268 261 255 250 248 246 246 247 247 249
319 303 296 297 301 309 325 341 348 351 346 335 327 319 312 307 300 297 291 284 279 277 273 279 283 283 283 283 285 284 281 278 280 277 271 259 254 250 247 245 243 241 240
312 315 325 335 347 15 33 23 9 351 343 333 322 312 306 302 297 292 287 279 276 274 272 272 276 279 279 280 281 284 289 287 288 293 293 288 275 264 253 248 243 238 233
353 3 3 7 15 49 40 23 357 342 332 317 307 302 300 299 292 285 281 278 278 276 275 273 275 277 279 281 282 286 288 292 287 280 277 275 273 266 257 249 245 241 233
14 14 13 16 24 44 49 21 354 334 317 306 304 305 303 297 299 298 291 286 281 277 276 275 278 279 282 281 283 285 288 287 285 268 266 271 269 267 258 246 241 235 227
15 14 16 22 33 86 57 343 331 318 305 303 306 306 308 308 309 300 301 301 292 282 276 274 275 277 280 283 285 284 278 275 272 265 269 272 259 260 257 248 228 219 216
13 6 21 17 359 38 224 295 315 311 307 306 307 306 306 305 307 312 308 299 290 285 280 277 271 275 281 286 284 280 279 274 266 255 235 257 255 252 255 238 223 216 215
16 3 20 357 344 360 240 302 323 319 312 315 313 312 309 309 311 313 306 297 293 291 289 283 277 280 286 288 287 281 275 272 269 242 199 236 261 266 257 239 212 216 231
17 359 2 348 346 353 358 340 334 326 325 323 315 311 310 313 314 313 307 300 298 300 307 313 307 299 296 304 315 311 309 295 284 280 107 270 273 294 286 257 206 221 247